Starlink 11318

operational
NORAD ID: 61252 Int'l Des: 2024-175 Owner: SPXS Country: US Constellation: starlink
LEOCIRCULAR

关于 Starlink 11318

正在加载描述...

实时位置

正在加载3D地球...

即将过境

高度历史

Altitude vs Time

uPlot chart will show altitude changes over time

两行轨道根数

1 61252U 24175K 25307.75540216 -.00001289 00000-0 -57790-5 0 9997
2 61252 53.1588 317.3258 0001281 75.4040 284.7120 15.69706464 64753
Epoch: Nov 3, 2025 • Age: 12 hours

当前状态

高度 376.2 km
速度 7.68 km/s
星下点 -46.06°S, 53.91°E
发射日期 Sep 25, 2024
运行时间 1.1 years
类型 internet

技术详情

分类 Payload
质量 960.00 kg
干质量 910.00 kg
总质量 960.00 kg
长度 0.30 m
直径 4.10 m
跨度 29.00 m
形状 Box + pan
制造商 SPXS
平台类型 Starlink V2MD
阶段状态 In Orbit
所有者/国家 SPXS/US

大型星座

Loading constellations...